Regional Weather Roundup
Issued by NWS

Home | Current Version | Previous Version | Graphics & Text | Print | Product List | Glossary On
Versions: 1 2 3 4 5 6 7 8 9 10 11 12 13 14 15 16 17 18 19 20 21 22 23 24 25 26 27 28 29 30 31 32 33 34 35 36 37 38 39 40 41 42 43 44 45 46 47 48 49 50
000
ASUS43 KIND 152159
RWRIN

WEATHER ROUNDUP FOR INDIANA
NATIONAL WEATHER SERVICE INDIANAPOLIS IN
500 PM EST SUN JAN 15 2017

NOTE: "FAIR" INDICATES FEW OR NO CLOUDS BELOW 12,000 FEET WITH NO
SIGNIFICANT WEATHER AND/OR OBSTRUCTIONS TO VISIBILITY.

* - STATION DOES NOT REPORT WEATHER SUCH AS PRECIPITATION OR FOG.

+ - STATION NOT QUALITY CONTROLLED BY THE NATIONAL WEATHER SERVICE.
    USE DATA WITH CAUTION...ESPECIALLY DEWPOINT AND RELATIVE
    HUMIDITY OBSERVATIONS.

INZ001>003-010>013-019-020-152300-
NORTHWEST INDIANA

CITY           SKY/WX    TMP DP  RH WIND       PRES   REMARKS
MONTICELLO +   CLOUDY    33  24  71 E5        30.35S WCI  28

$$

LMZ046-743>745-152300-
SOUTHERN LAKE MICHIGAN

STATION/POSITION TIME  TEMP    WIND        PRES    WAVE
                       AIR SEA DIR/SP/G            HT
                 (UTC) (F)     (DEG/KT/KT) (MB)    (FT)
BURNS HARBOR     2140   32      CALM  /  2 1028.1F
MICHIGAN CITY    2130   32     210/  4/  4   N/A

$$

INZ004-005-014>016-021>024-152300-
NORTH CENTRAL INDIANA

CITY           SKY/WX    TMP DP  RH WIND       PRES   REMARKS
ELKHART        CLEAR     32  21  64 CALM      30.35
GOSHEN         CLOUDY    33  23  66 S5        30.35S WCI  29
SOUTH BEND     CLOUDY    32  22  66 SW5       30.35F WCI  27

$$

INZ006>009-017-018-025>027-152300-
NORTHEAST INDIANA

CITY           SKY/WX    TMP DP  RH WIND       PRES   REMARKS
ANGOLA *+      CLEAR     32  18  55 S5        30.34S WCI  27
FORT WAYNE     MOCLDY    33  22  63 NE5       30.36S WCI  29
KENDALLVILLE + CLOUDY    32  22  66 S5        30.34F WCI  27

$$

INZ028-029-035-036-043>045-051>053-152300-
WEST CENTRAL INDIANA

CITY           SKY/WX    TMP DP  RH WIND       PRES   REMARKS
CRAWFORDSVL +  PTCLDY    32  31  98 NE5       30.33S FOG     WCI  27
LAFAYETTE      CLOUDY    34  27  75 E6        30.34F WCI  29
TERRE HAUTE    CLOUDY    36  31  82 NE3       30.33S

$$

INZ030>032-037>040-046>048-054>057-064-065-152300-
CENTRAL INDIANA

CITY           SKY/WX    TMP DP  RH WIND       PRES   REMARKS
COLUMBUS       LGT RAIN  36  36 100 NE5       30.33S FOG
INDIANAPOLIS   CLOUDY    35  30  82 E7        30.33S FOG     WCI  29
-EAGLE CREEK   CLOUDY    35  29  78 NE6       30.33R WCI  30
KOKOMO +       PTCLDY    33  27  78 E3        30.36R
MT COMFORT *+  CLOUDY    32  30  93 E5        30.34R WCI  27
SHELBYVILLE    CLOUDY    37  31  78 NE6       30.33R HAZE

$$

INZ033-034-041-042-049-050-058-059-152300-
EAST CENTRAL INDIANA

CITY           SKY/WX    TMP DP  RH WIND       PRES   REMARKS
MUNCIE         CLOUDY    35  28  75 E6        30.34S WCI  30

$$

INZ060-061-067>069-081>083-085>088-152300-
SOUTHWEST INDIANA

CITY           SKY/WX    TMP DP  RH WIND       PRES   REMARKS
EVANSVILLE     LGT RAIN  40  38  93 NE6       30.30F FOG
HUNTINGBURG *+ CLOUDY    39  37  93 NE5       30.31S

$$

INZ062-063-066-070>080-084-089>092-152300-
SOUTH CENTRAL AND SOUTHEAST INDIANA

CITY           SKY/WX    TMP DP  RH WIND       PRES   REMARKS
BLOOMINGTON    LGT RAIN  37  34  89 E5        30.30S FOG
MADISON *+     CLOUDY    37  36  93 NE3       30.33S
SEYMOUR +      RAIN      39  37  93 E5        30.32F

$$





USA.gov is the U.S. government's official web portal to all federal, state and local government web resources and services.